Weather Service Report


364 
ASUS44 KFWD 222015
RWRTX 
NORTH TEXAS HOURLY WEATHER ROUNDUP
NATIONAL WEATHER SERVICE FORT WORTH TX
300 PM CDT THU JUN 22 2017

NOTE: "FAIR" INDICATES FEW OR NO CLOUDS BELOW 12,000 FEET WITH NO
SIGNIFICANT WEATHER AND/OR OBSTRUCTIONS TO VISIBILITY.

TXZ118-119-222100-
DALLAS/FORT WORTH METROPLEX
  
CITY           SKY/WX    TMP DP  RH WIND       PRES   REMARKS
DFW AIRPORT    CLOUDY    87  73  62 NE6       29.67F HX  94           
DALLAS LOVE    PTSUNNY   85  71  63 NW6       29.67F HX  90           
FTW MEACHAM    CLOUDY    87  73  62 NW9       29.68F HX  94           
DAL-EXECUTIVE  CLOUDY    84  73  69 NW7       29.68F HX  90           
FTW-ALLIANCE   CLOUDY    87  72  60 VRB3      29.68F HX  93           
FTW-NAS-JRB    CLOUDY    86  71  60 NW6       29.69F HX  91           
FTW-SPINKS     PTSUNNY   90  70  51 CALM      29.70F HX  95           
ARLINGTON      CLOUDY    87  72  60 N6        29.68F HX  93           
GRAND PRAIRIE  MOSUNNY   84  70  61 CALM      29.70F                  
ADDISON        CLOUDY    84  72  65 N5        29.69F                  
MESQUITE       PTSUNNY   88  72  58 NW12      29.66F HX  94           
LANCASTER      CLOUDY    83  72  67 NW7       29.68F                  
$$

TXZ091>094-102>105-117-120-121-131>134-222100-
NORTH CENTRAL TEXAS
  
CITY           SKY/WX    TMP DP  RH WIND       PRES   REMARKS
SHRMAN/DENISON CLOUDY    83  72  69 CALM      29.70F                  
GAINESVILLE    CLOUDY    84  71  64 E3        29.72S                  
BOWIE          MOSUNNY   88  70  55 CALM      29.71F HX  92           
BRIDGEPORT     CLOUDY    86  67  53 NW7       29.72F                  
DECATUR        PTSUNNY   84  72  65 N3        29.72S HX  90           
DENTON         CLOUDY    87  73  62 MISG      29.68F HX  94           
MCKINNEY       CLOUDY    84  74  71 NW8       29.67F HX  91           
BONHAM         CLOUDY    84  72  65 N6        29.67F                  
GREENVILLE     CLOUDY    90  72  55 NE3       29.66S HX  96           
ROCKWALL       PTSUNNY   87  74  63 NW7G18    29.67S HX  95           
TERRELL        PTSUNNY   87  72  60 NW5       29.66F HX  93           
WAXAHACHIE     CLOUDY    82  73  72 NW3       29.70F                  
CLEBURNE       PTSUNNY   84  75  74 W6        29.71F HX  92           
GRANBURY       PTSUNNY   90  68  47 CALM      29.71F HX  93           
$$

TXZ083>090-098>101-113>116-127>130-139>142-154-155-222100-
WESTERN NORTH TEXAS
  
CITY           SKY/WX    TMP DP  RH WIND       PRES   REMARKS
WICHITA FALLS  MOSUNNY   91  64  40 VRB6      29.69F HX  92           
WF-KICKAPOO    SUNNY     90  63  39 SE6       29.72F HX  91           
VERNON         SUNNY     93  55  28 S7        29.71F HX  91           
ABILENE        SUNNY     91  55  29 VRB3      29.76F                  
ABILENE-DYESS  MOSUNNY   93  62  35 NE8       29.73F HX  93           
GRAHAM         SUNNY     93  64  37 W7        29.69F HX  94           
BRECKENRIDGE   SUNNY     92  54  27 W7        29.73F HX  90           
CISCO          SUNNY     90  55  31 CALM      29.76F                  
EASTLAND       SUNNY     89  61  38 W7        29.74F                  
RANGER         SUNNY     88  64  44 W5        29.74F                  
MINERAL WELLS  MOSUNNY   89  68  49 VRB3      29.68F HX  93           
STEPHENVILLE   PTSUNNY   90  66  45 W8        29.75F HX  92           
COMANCHE       SUNNY     90  65  43 NE3       29.74F HX  92           
BROWNWOOD      MOSUNNY   91  57  31 W7        29.74F HX  90           
COLEMAN        SUNNY     95  55  26 CALM      29.75F HX  93           
$$

TXZ143>147-156>162-174-175-222100-
CENTRAL TEXAS
  
CITY           SKY/WX    TMP DP  RH WIND       PRES   REMARKS
WACO           CLOUDY    90  73  57 W7        29.68F HX  98           
WACO-TSTC      CLOUDY    84  73  70 NW6       29.69  HX  91           
WACO-MCGREGOR  CLOUDY    89  72  56 N9        29.69F HX  96           
HILLSBORO      CLOUDY    84  74  73 W8        29.69F HX  91           
CORSICANA        N/A     87  73  62 W8        29.67F HX  94           
MEXIA          CLOUDY    86  72  62 W10G17    29.67F HX  92           
HEARNE         CLOUDY    82  75  78 W9        29.69F                  
CAMERON        CLOUDY    87  73  62 NW9       29.69F HX  93           
TEMPLE         PTSUNNY   90  71  53 NW9       29.69F HX  96           
KILLEEN        PTSUNNY   89  68  48 NE7       29.69F HX  93           
KILLEEN-SKYLRK MOSUNNY   89  70  53 NW8       29.70F HX  94           
FORT HOOD      MOSUNNY  N/A N/A N/A NW5       29.67F                  
HAMILTON       PTSUNNY   92  66  42 N5        29.73F HX  95           
LAMPASAS       SUNNY     91  69  48 CALM      29.71F HX  95           
$$

TXZ095>097-106>112-122>126-135>138-148>153-164>167-222100-
EAST TEXAS
  
CITY           SKY/WX    TMP DP  RH WIND       PRES   REMARKS
PARIS            N/A     86  75  69 NE7       29.66F HX  95           
SULPHUR SPRNGS   N/A     85  75  72 N9        29.66F HX  93           
MOUNT PLEASANT PTSUNNY   86  73  64 N8        29.63F HX  92           
GILMER         PTSUNNY   85  74  70 NW8       29.61S HX  93           
MINEOLA        MOSUNNY   82  75  78 NW8       29.64F                  
TYLER          PTSUNNY   84  75  74 W9        29.63F HX  92           
LONGVIEW       TSTM      77  76  96 NE12      29.59R VSB 1/2          
MARSHALL       CLOUDY    76  73  90 N9        29.59S                  
ATHENS         CLOUDY    79  73  83 N6        29.64S                  
PALESTINE      CLOUDY    80  76  90 W5        29.67S                  
JACKSONVILLE   CLOUDY    78  76  94 W7        29.66S                  
HENDERSON      CLOUDY    84  76  77 W10       29.61S HX  94           
CENTER         HVY RAIN  80  79  95 W9        29.57S                  
NACOGDOCHES    CLOUDY    79  73  83 MISG      29.60R                  
LUFKIN         LGT RAIN  77  76  96 W8        29.63R                  
$$

SUPPLEMENTAL OBSERVATIONS (NWS FORT WORTH AREA)
  
CITY           SKY/WX    TMP DP  RH WIND       PRES   REMARKS
DENISON DAM      N/A     81  72  74 NW7         N/A                   
CADDO GRASSLND   N/A     88  73  62 NE6         N/A  HX  96           
PAT MAYSE LAKE   N/A     82  73  74 N6          N/A                   
GREENVILLE       N/A     84  72  65 NE5         N/A                   
CEDAR HILL       N/A     88  73  62 N3          N/A  HX  96           
LBJ GRASSLAND    N/A     88  72  58 VRB3        N/A  HX  94           
POSSUM KINGDOM   N/A     95  64  36 NE3G12      N/A  HX  97           
GRANBURY         N/A     90  68  48 N6          N/A  HX  93           
MCGREGOR         N/A     91  72  52 W3          N/A  HX  98           
TEMPLE           N/A     90  70  51 CALM        N/A  HX  95           
ATHENS           N/A     82  75  78 N1          N/A                   
$$

SUPPLEMENTAL OBSERVATIONS (NWS NORMAN AREA)
  
CITY           SKY/WX    TMP DP  RH WIND       PRES   REMARKS
GOODLETT         N/A     98  54  23 SE8       29.70F HX  95           
ODELL            N/A     94  60  32 SE9       29.72F HX  93           
CROWELL          N/A     95  63  33 SE6       29.71F HX  96           
KNOX CITY        N/A     96  52  22 S5G13     29.72F HX  94           
SEYMOUR          N/A     98  65  34 SE3       29.72F HX 101           
MILLERS CREEK    N/A     93  63  36 SE2         N/A  HX  94           
$$

SUPPLEMENTAL OBSERVATIONS (NWS SAN ANGELO AREA)
  
CITY           SKY/WX    TMP DP  RH WIND       PRES   REMARKS
HASKELL          N/A     94  52  23 SW3       29.73F HX  91           
THROCKMORTON     N/A     91  61  36 SW2       29.74F HX  91           
STAMFORD         N/A     94  59  30 SW6       29.74F HX  93           
CLYDE            N/A     92  60  34 S2        29.78F HX  92           
HAMBY            N/A     97  59  28 W5          N/A  HX  96           
$$

SUPPLEMENTAL OBSERVATIONS (NWS SHREVEPORT AREA)
  
CITY           SKY/WX    TMP DP  RH WIND       PRES   REMARKS
CLARKSVILLE      N/A     84  72  65 NE6         N/A                   
GILMER           N/A     88  73  62 NE5G14      N/A  HX  96           
HENDERSON        N/A     84  77  79 NW12        N/A  HX  94           
LUFKIN           N/A     79  75  89 MISG        N/A                   
N SABINE NF      N/A     79  75  89 MISG        N/A                   
S SABINE NF      N/A     77  75  94 SW3         N/A                   
$$

SUPPLEMENTAL OBSERVATIONS ARE A COLLECTION OF AUTOMATED INSTRUMENTS
THAT ARE MAINTAINED BY A VARIETY OF FEDERAL AND STATE AGENCIES. 
CERTAIN ELEMENTS...SUCH AS HUMIDITY VALUES AND SUSTAINED WIND 
SPEEDS...MAY BE APPROXIMATED.

  

Return to Home page


Western Regional Climate Center, wrcc@dri.edu